Change the Weather History Date:

Friday, January 18, 2013

  Actual Average Record
Temperature  
Mean Temperature 41 °F 43 °F  
Max Temperature 51 °F 54 °F 70 °F (2006)
Min Temperature 30 °F 33 °F 16 °F (2005)
Degree Days  
Heating Degree Days 24 22  
Month to date heating degree days 236 395  
Since 1 July heating degree days 1250 1445  
Cooling Degree Days 0 0  
Month to date cooling degree days 0 0  
Year to date cooling degree days 0 0  
Moisture  
Dew Point 31 °F    
Average Humidity 68    
Maximum Humidity 100    
Minimum Humidity 36    
Precipitation  
Precipitation T in 0.09 in 1.14 in (2015)
Month to date precipitation 1.07 1.54  
Year to date precipitation 1.07 1.54  
Sea Level Pressure  
Sea Level Pressure 30.37 in    
Wind  
Wind Speed 6 mph (North)    
Max Wind Speed 20 mph    
Max Gust Speed 26 mph    
Visibility 10 miles    
Events Rain    
T = Trace of Precipitation, MM = Missing Value Source: NWS Daily Summary

Daily Weather History Graph

Daily Weather History Graph

Search for Another Location

Airport or City:

Trip Planner

Search our weather history database for the weather conditions in past years. The results will help you decide how hot, cold, wet, or windy it might be!

Date:

Astronomy

Jan. 18, 2013 Rise Set
Actual Time 7:21 AM EST 5:31 PM EST
Civil Twilight 6:54 AM EST 5:59 PM EST
Nautical Twilight 6:23 AM EST 6:29 PM EST
Astronomical Twilight 5:53 AM EST 7:00 PM EST
Moon 11:19 AM EST (1/18) 12:01 AM EST (1/18)
Length of Visible Light 11h 04m
Length of Day
10h 10m
Waxing Crescent, 47% of the Moon is Illuminated
Jan 18
Waxing Crescent
Jan 18
First Quarter
Jan 26
Full
Feb 3
Last Quarter
Feb 10
New

Hourly Weather History & Observations

Time (EST) Temp. Windchill Dew Point Humidity Pressure Visibility Wind Dir Wind Speed Gust Speed Precip Events Conditions
12:42 AM 39.2 °F 30.8 °F 37.4 °F 93% 30.13 in 10.0 mi North 15.0 mph 26.5 mph 0.00 in Rain Light Rain
12:54 AM 39.0 °F 31.4 °F 37.0 °F 93% 30.14 in 10.0 mi North 12.7 mph 25.3 mph 0.00 in   Overcast
1:35 AM 37.4 °F 29.3 °F 35.6 °F 93% 30.16 in 10.0 mi North 12.7 mph - N/A   Mostly Cloudy
1:52 AM 37.4 °F 29.8 °F 35.6 °F 93% 30.17 in 10.0 mi North 11.5 mph - N/A   Mostly Cloudy
1:54 AM 37.9 °F 30.0 °F 36.0 °F 93% 30.17 in 10.0 mi North 12.7 mph - N/A   Mostly Cloudy
2:54 AM 37.9 °F 30.9 °F 36.0 °F 93% 30.26 in 10.0 mi NNW 10.4 mph - N/A   Overcast
3:54 AM 37.9 °F 30.9 °F 35.1 °F 89% 30.26 in 10.0 mi North 10.4 mph - N/A   Overcast
4:50 AM 37.4 °F 32.8 °F 35.6 °F 93% 30.27 in 10.0 mi NNW 5.8 mph - N/A   Scattered Clouds
4:54 AM 36.0 °F 31.1 °F 35.1 °F 97% 30.27 in 10.0 mi NNW 5.8 mph - N/A   Scattered Clouds
5:54 AM 35.1 °F - 34.0 °F 96% 30.30 in 10.0 mi Calm Calm - N/A   Clear
6:54 AM 34.0 °F 31.0 °F 33.1 °F 96% 30.34 in 8.0 mi WNW 3.5 mph - N/A   Clear
7:54 AM 34.0 °F 28.8 °F 32.0 °F 92% 30.38 in 8.0 mi NW 5.8 mph - N/A   Clear
8:54 AM 39.0 °F 34.8 °F 32.0 °F 76% 30.43 in 10.0 mi North 5.8 mph - N/A   Clear
9:54 AM 41.0 °F 34.3 °F 30.0 °F 65% 30.47 in 10.0 mi North 11.5 mph - N/A   Clear
10:54 AM 45.0 °F 38.9 °F 30.0 °F 56% 30.46 in 10.0 mi North 12.7 mph 23.0 mph N/A   Clear
11:54 AM 48.0 °F - 28.0 °F 46% 30.45 in 10.0 mi North 12.7 mph - N/A   Clear
12:54 PM 50.0 °F - 25.0 °F 38% 30.43 in 10.0 mi North 9.2 mph - N/A   Clear
1:54 PM 50.0 °F - 25.0 °F 38% 30.43 in 10.0 mi NNE 9.2 mph - N/A   Clear
2:54 PM 51.1 °F - 27.0 °F 39% 30.44 in 10.0 mi NNE 9.2 mph - N/A   Clear
3:54 PM 50.0 °F - 25.0 °F 38% 30.45 in 10.0 mi North 9.2 mph - N/A   Clear
4:54 PM 48.0 °F - 25.0 °F 41% 30.47 in 10.0 mi NNE 8.1 mph - N/A   Clear
5:54 PM 45.0 °F 43.5 °F 24.1 °F 44% 30.50 in 10.0 mi NNE 3.5 mph - N/A   Clear
6:54 PM 37.0 °F - 32.0 °F 82% 30.51 in 10.0 mi Calm Calm - N/A   Clear
7:54 PM 37.0 °F - 30.9 °F 79% 30.52 in 10.0 mi Calm Calm - N/A   Clear
8:54 PM 34.0 °F - 30.0 °F 85% 30.53 in 10.0 mi Calm Calm - N/A   Clear
9:54 PM 33.1 °F - 28.9 °F 85% 30.52 in 10.0 mi Calm Calm - N/A   Clear
10:54 PM 32.0 °F - 28.0 °F 85% 30.51 in 10.0 mi Calm Calm - N/A   Clear
11:54 PM 30.9 °F - 28.0 °F 89% 30.51 in 10.0 mi Calm Calm - N/A   Clear